DW2128 Weather Reports


Display with metric or nautical units.
time (UTC)temp
F
wind
direction
speed
MPH
gust
MPH
rain 1hr
in
rain 24hr
in
rain mn
in
humidity
%
barometer
mb
20260509083520 55 277 0.0 0.0 0.00 0.00 0.00 82 1014.8
20260509083330 55 277 0.0 0.0 0.00 0.00 0.00 82 1014.8
20260509082023 55 277 0.0 0.0 0.00 0.00 0.00 83 1014.8
20260509081827 54 277 0.0 0.0 0.00 0.00 0.00 83 1015.0
20260509080541 54 277 0.0 0.0 0.00 0.00 0.00 83 1015.0
20260509080329 54 277 0.0 0.0 0.00 0.00 0.00 83 1015.1
20260509075022 54 277 0.0 0.0 0.00 0.00 0.00 83 1015.1
20260509074832 54 277 0.0 0.0 0.00 0.00 0.00 83 1015.1
20260509073526 54 277 0.0 0.0 0.00 0.00 0.00 83 1015.1
20260509073331 54 277 0.0 0.0 0.00 0.00 0.00 83 1015.2
20260509072025 54 277 0.0 0.0 0.00 0.00 0.00 83 1015.2
20260509071830 54 277 0.0 0.0 0.00 0.00 0.00 83 1015.2
20260509070523 54 277 0.0 0.0 0.00 0.00 0.00 82 1015.2
20260509070333 54 277 0.0 0.0 0.00 0.00 0.00 82 1015.3
20260509065026 54 277 0.0 0.0 0.00 0.00 0.00 82 1015.3
20260509064831 54 277 0.0 0.0 0.00 0.00 0.00 82 1015.3
20260509063526 54 277 0.0 0.0 0.00 0.00 0.00 81 1015.3
20260509063335 54 277 0.0 0.0 0.00 0.00 0.00 81 1015.4
20260509062028 55 277 0.0 0.0 0.00 0.00 0.00 81 1015.4
20260509061834 55 277 0.0 0.0 0.00 0.00 0.00 81 1015.5
20260509060528 55 277 0.0 0.0 0.00 0.00 0.00 80 1015.5
20260509060353 55 277 0.0 0.0 0.00 0.00 0.00 80 1015.7
20260509055026 55 277 0.0 0.0 0.00 0.00 0.00 80 1015.7
20260509054852 55 277 0.0 0.0 0.00 0.00 0.00 80 1015.6
20260509053525 56 277 0.0 0.0 0.00 0.00 0.00 79 1015.7
20260509053350 56 277 0.0 0.0 0.00 0.00 0.00 79 1015.7
20260509052021 56 277 0.0 0.0 0.00 0.00 0.00 79 1015.7
20260509051826 56 277 0.0 0.0 0.00 0.00 0.00 79 1015.7
20260509050520 57 277 0.0 0.0 0.00 0.00 0.00 78 1015.7
20260509050329 57 277 0.0 0.0 0.00 0.00 0.00 78 1015.7
20260509045024 57 277 0.0 0.0 0.00 0.00 0.00 77 1015.7
20260509044848 57 277 0.0 0.0 0.00 0.00 0.00 77 1015.6
20260509043522 57 277 0.0 0.0 0.00 0.00 0.00 76 1015.6
20260509043330 57 277 0.0 0.0 0.00 0.00 0.00 76 1015.4
20260509042023 58 277 0.0 0.0 0.00 0.00 0.00 75 1015.4
20260509041835 58 277 0.0 0.0 0.00 0.00 0.00 75 1015.4
20260509040529 58 277 0.0 0.0 0.00 0.00 0.00 74 1015.4
20260509040334 58 277 0.0 0.0 0.00 0.00 0.00 73 1015.1
20260509035028 59 277 0.0 0.0 0.00 0.00 0.00 72 1015.2
20260509034852 59 277 0.0 0.0 0.00 0.00 0.00 72 1015.1
20260509033525 60 277 0.0 0.0 0.00 0.00 0.00 72 1015.1
20260509033335 60 277 0.0 0.0 0.00 0.00 0.00 72 1015.0
20260509032028 60 277 0.0 0.0 0.00 0.00 0.00 70 1015.0
20260509031834 60 277 0.0 0.0 0.00 0.00 0.00 70 1014.7
20260509030527 61 277 0.0 0.0 0.00 0.00 0.00 68 1014.8
20260509030335 61 277 0.0 0.0 0.00 0.00 0.00 67 1014.6
20260509025029 62 277 0.0 0.0 0.00 0.00 0.00 65 1014.6
20260509024839 63 277 0.0 0.0 0.00 0.00 0.00 64 1014.6
20260509023552 65 277 0.0 0.0 0.00 0.00 0.00 60 1014.6
20260509023333 66 277 0.0 0.0 0.00 0.00 0.00 60 1014.6
20260509022030 67 276 0.0 0.0 0.00 0.00 0.00 58 1014.6
20260509021822 67 276 0.0 0.0 0.00 0.00 0.00 57 1014.6
20260509020536 68 347 0.0 0.0 0.00 0.00 0.00 55 1014.6
20260509020341 68 347 0.0 0.0 0.00 0.00 0.00 55 1014.6
20260509015034 68 348 0.0 0.0 0.00 0.00 0.00 55 1014.6
20260509014821 68 348 0.0 0.0 0.00 0.00 0.00 55 1014.6
20260509013520 69 342 0.0 0.0 0.00 0.00 0.00 53 1014.6
20260509013329 69 343 0.0 0.0 0.00 0.00 0.00 55 1014.6
20260509012042 69 324 0.0 0.0 0.00 0.00 0.00 54 1014.6
20260509011829 69 324 0.0 0.0 0.00 0.00 0.00 54 1014.5
20260509010544 70 325 0.0 0.0 0.00 0.00 0.00 53 1014.5
20260509010327 70 325 0.0 0.0 0.00 0.00 0.00 54 1014.6
20260509005041 71 327 0.0 0.0 0.00 0.00 0.00 52 1014.6
20260509004827 71 261 1.0 0.0 0.00 0.00 0.00 52 1014.6
20260509003520 72 355 0.0 0.0 0.00 0.00 0.00 51 1014.6
20260509003325 72 5 0.0 0.0 0.00 0.00 0.00 52 1014.6
20260509002038 72 340 0.0 0.0 0.00 0.00 0.00 50 1014.6
20260509001826 72 355 0.0 0.0 0.00 0.00 0.00 51 1014.6
20260509000519 73 346 0.0 0.0 0.00 0.00 0.00 50 1014.6
20260509000329 72 346 0.0 0.0 0.00 0.00 0.00 51 1014.6
20260508235024 72 348 0.0 0.0 0.00 0.00 0.00 52 1014.6
20260508234828 72 348 0.0 0.0 0.00 0.00 0.00 51 1014.7
20260508233541 72 261 0.0 0.0 0.00 0.00 0.00 50 1014.7
20260508233323 72 242 1.0 0.0 0.00 0.00 0.00 50 1014.9
20260508232037 72 240 0.0 0.0 0.00 0.00 0.00 50 1014.9
20260508231826 72 301 0.0 0.0 0.00 0.00 0.00 52 1015.1
20260508230520 73 26 0.0 0.0 0.00 0.00 0.00 49 1015.1
20260508230324 73 291 0.0 0.0 0.00 0.00 0.00 49 1015.2
20260508225058 72 254 1.0 0.0 0.00 0.00 0.00 53 1015.2
20260508224840 72 253 1.0 0.0 0.00 0.00 0.00 51 1015.3
20260508223534 73 5 1.0 0.0 0.00 0.00 0.00 50 1015.3
20260508223342 73 287 1.0 0.0 0.00 0.00 0.00 52 1015.5
20260508222056 73 327 1.0 0.0 0.00 0.00 0.00 51 1015.5
20260508221819 73 286 1.0 0.0 0.00 0.00 0.00 51 1015.7
20260508220537 72 304 1.0 0.0 0.00 0.00 0.00 53 1015.7
20260508220341 72 255 2.0 0.0 0.00 0.00 0.00 51 1015.7
20260508215054 73 26 2.0 0.0 0.00 0.00 0.00 51 1015.7
20260508214826 73 271 2.0 0.0 0.00 0.00 0.00 51 1015.9
20260508213539 73 33 1.0 0.0 0.00 0.00 0.00 50 1015.9
20260508213326 74 290 1.0 0.0 0.00 0.00 0.00 48 1016.1
20260508212022 72 313 2.0 0.0 0.00 0.00 0.00 51 1016.1
20260508211826 72 254 2.0 0.0 0.00 0.00 0.00 51 1016.2
20260508210522 73 20 0.0 0.0 0.00 0.00 0.00 50 1016.2
20260508210352 72 22 0.0 0.0 0.00 0.00 0.00 51 1016.2
20260508205026 71 225 2.0 0.0 0.00 0.00 0.00 51 1016.2
20260508204830 72 224 2.0 0.0 0.00 0.00 0.00 49 1016.3
20260508203525 71 240 1.0 0.0 0.00 0.00 0.00 49 1016.3
20260508203349 71 289 1.0 0.0 0.00 0.00 0.00 51 1016.5
20260508202022 71 333 2.0 0.0 0.00 0.00 0.00 50 1016.5
20260508201832 71 10 1.0 0.0 0.00 0.00 0.00 51 1016.5
20260508200525 71 251 1.0 0.0 0.00 0.00 0.00 48 1016.5
20260508200329 71 340 1.0 0.0 0.00 0.00 0.00 48 1016.6
20260508195023 71 259 0.0 0.0 0.00 0.00 0.00 48 1016.6
20260508194830 71 249 0.0 0.0 0.00 0.00 0.00 46 1016.6
20260508193539 70 13 0.0 0.0 0.00 0.00 0.00 47 1016.6
20260508193329 70 340 0.0 0.0 0.00 0.00 0.00 47 1016.8
20260508192042 69 277 1.0 0.0 0.00 0.00 0.00 48 1016.8
20260508191826 69 248 1.0 0.0 0.00 0.00 0.00 47 1017.0
20260508190519 69 17 0.0 0.0 0.00 0.00 0.00 49 1017.0
20260508190345 69 318 0.0 0.0 0.00 0.00 0.00 50 1016.9
20260508185037 68 355 1.0 0.0 0.00 0.00 0.00 48 1016.9
20260508184826 68 360 1.0 0.0 0.00 0.00 0.00 48 1017.1
20260508183559 67 18 1.0 0.0 0.00 0.00 0.00 49 1017.1
20260508183323 67 300 0.0 0.0 0.00 0.00 0.00 48 1017.2
20260508182036 67 5 1.0 0.0 0.00 0.00 0.00 51 1017.2
20260508181821 67 9 0.0 0.0 0.00 0.00 0.00 51 1017.2
20260508180538 66 9 0.0 0.0 0.00 0.00 0.00 52 1017.2
20260508180327 66 311 0.0 0.0 0.00 0.00 0.00 52 1017.3
20260508175020 65 26 0.0 0.0 0.00 0.00 0.00 53 1017.3
20260508174823 65 26 0.0 0.0 0.00 0.00 0.00 53 1017.4
20260508173536 63 342 0.0 0.0 0.00 0.00 0.00 56 1017.4
20260508173401 63 322 0.0 0.0 0.00 0.00 0.00 56 1017.3
20260508172034 62 309 0.0 0.0 0.00 0.00 0.00 58 1017.3
20260508171826 62 312 0.0 0.0 0.00 0.00 0.00 58 1017.4
20260508170541 61 11 1.0 0.0 0.00 0.00 0.00 59 1017.4
20260508170322 61 11 1.0 0.0 0.00 0.00 0.00 60 1017.4
20260508165036 59 276 0.0 0.0 0.00 0.00 0.00 63 1017.4
20260508164823 59 303 0.0 0.0 0.00 0.00 0.00 63 1017.5
20260508163532 59 19 1.0 0.0 0.00 0.00 0.00 64 1017.5
20260508163341 59 19 1.0 0.0 0.00 0.00 0.00 64 1017.6
20260508162035 58 313 0.0 0.0 0.00 0.00 0.00 66 1017.6
20260508161838 58 313 0.0 0.0 0.00 0.00 0.00 67 1017.7
20260508160556 56 312 0.0 0.0 0.00 0.00 0.00 72 1017.7
20260508160323 55 312 0.0 0.0 0.00 0.00 0.00 72 1017.7
20260508155052 55 312 0.0 0.0 0.00 0.00 0.00 72 1017.7
20260508154839 55 312 0.0 0.0 0.00 0.00 0.00 72 1017.8
20260508153532 55 312 0.0 0.0 0.00 0.00 0.00 72 1017.8
20260508153337 55 312 0.0 0.0 0.00 0.00 0.00 72 1017.8
20260508152034 55 311 0.0 0.0 0.00 0.00 0.00 73 1017.8
20260508151824 55 311 1.0 0.0 0.00 0.00 0.00 73 1017.7
20260508150532 55 286 0.0 0.0 0.00 0.00 0.00 74 1017.7
20260508150324 55 285 0.0 0.0 0.00 0.00 0.00 74 1017.7
20260508145037 55 286 1.0 0.0 0.00 0.00 0.00 75 1017.7
20260508144902 55 286 1.0 0.0 0.00 0.00 0.00 75 1017.6
20260508143535 55 284 0.0 0.0 0.00 0.00 0.00 76 1017.6
20260508143327 55 284 0.0 0.0 0.00 0.00 0.00 76 1017.3
20260508142020 54 283 0.0 0.0 0.00 0.00 0.00 76 1017.3
20260508141826 54 283 0.0 0.0 0.00 0.00 0.00 76 1017.2
20260508140524 54 283 0.0 0.0 0.00 0.00 0.00 77 1017.2
20260508140330 54 283 0.0 0.0 0.00 0.00 0.00 77 1017.2
20260508135025 54 283 0.0 0.0 0.00 0.00 0.00 78 1017.2
20260508134833 54 283 0.0 0.0 0.00 0.00 0.00 78 1016.9
20260508133527 54 282 0.0 0.0 0.00 0.00 0.00 78 1016.9
20260508133332 54 282 0.0 0.0 0.00 0.00 0.00 78 1016.7
20260508132027 54 282 0.0 0.0 0.00 0.00 0.00 78 1016.7
20260508131832 54 282 0.0 0.0 0.00 0.00 0.00 78 1016.7
20260508130526 54 282 0.0 0.0 0.00 0.00 0.00 78 1016.7
20260508130336 54 282 0.0 0.0 0.00 0.00 0.00 78 1016.8
20260508125030 54 282 0.0 0.0 0.00 0.00 0.00 78 1016.8
20260508124835 54 282 0.0 0.0 0.00 0.00 0.00 78 1016.8
20260508123529 54 282 0.0 0.0 0.00 0.00 0.00 79 1016.8
20260508123401 54 282 0.0 0.0 0.00 0.00 0.00 79 1016.9
20260508122034 54 282 0.0 0.0 0.00 0.00 0.00 79 1016.9
20260508121839 54 282 0.0 0.0 0.00 0.00 0.00 79 1016.8
20260508120535 54 281 0.0 0.0 0.00 0.00 0.00 79 1016.8
20260508120400 54 281 0.0 0.0 0.00 0.00 0.00 79 1016.7
20260508115032 54 281 0.0 0.0 0.00 0.00 0.00 80 1016.7
20260508114841 54 281 0.0 0.0 0.00 0.00 0.00 80 1016.7
20260508113533 54 281 0.0 0.0 0.00 0.00 0.00 80 1016.7
20260508113338 54 281 0.0 0.0 0.00 0.00 0.00 80 1016.8
20260508112031 54 281 0.0 0.0 0.00 0.00 0.00 80 1016.8
20260508111836 54 281 0.0 0.0 0.00 0.00 0.00 80 1016.7
20260508110529 54 281 0.0 0.0 0.00 0.00 0.00 80 1016.7
20260508110337 54 281 1.0 0.0 0.00 0.00 0.00 80 1016.7
20260508105034 54 5 1.0 0.0 0.00 0.00 0.00 80 1016.7
20260508104840 54 5 1.0 0.0 0.00 0.00 0.00 80 1016.7
20260508103535 54 5 0.0 0.0 0.00 0.00 0.00 81 1016.7
20260508103359 54 5 0.0 0.0 0.00 0.00 0.00 80 1016.7
20260508102031 55 5 0.0 0.0 0.00 0.00 0.00 80 1016.7
20260508101840 55 5 0.0 0.0 0.00 0.00 0.00 80 1016.6
20260508100535 55 5 0.0 0.0 0.00 0.00 0.00 81 1016.6
20260508100339 55 5 0.0 0.0 0.00 0.00 0.00 81 1016.7
20260508095053 55 5 0.0 0.0 0.00 0.00 0.00 81 1016.7
20260508094837 55 5 0.0 0.0 0.00 0.00 0.00 81 1016.7
20260508093550 55 5 0.0 0.0 0.00 0.00 0.00 81 1016.7
20260508093338 55 5 0.0 0.0 0.00 0.00 0.00 81 1016.7
20260508092033 55 5 0.0 0.0 0.00 0.00 0.00 80 1016.7
20260508091838 55 5 0.0 0.0 0.00 0.00 0.00 81 1016.8
20260508090533 55 5 0.0 0.0 0.00 0.00 0.00 81 1016.8
20260508090342 55 5 0.0 0.0 0.00 0.00 0.00 81 1016.7
20260508085052 55 5 0.0 0.0 0.00 0.00 0.00 81 1016.7
20260508084819 55 5 0.0 0.0 0.00 0.00 0.00 81 1016.8